Time,TemperatureF,DewpointF,PressureIn,WindDirection,WindDirectionDegrees,WindSpeedMPH,WindSpeedGustMPH,Humidity,HourlyPrecipIn,Conditions,Clouds,dailyrainin,SolarRadiationWatts/m^2,SoftwareType,DateUTC
2013-04-15 00:41:00,56.0,56.0,29.84,NE,51,1.0,4.0,100,0.00,,,0.00,0.000000,,2013-04-15 07:41:00,
2013-04-15 00:42:00,56.0,56.0,29.84,NE,51,1.0,4.0,100,0.00,,,0.00,0.000000,,2013-04-15 07:42:00,
2013-04-15 00:52:00,56.0,56.0,29.84,NE,51,1.0,4.0,100,0.00,,,0.00,0.000000,,2013-04-15 07:52:00,
2013-04-15 01:22:00,56.0,55.0,29.84,NW,313,2.0,2.0,96,0.00,,,0.00,0.000000,,2013-04-15 08:22:00,
2013-04-15 01:33:00,56.0,55.0,29.84,NW,313,2.0,2.0,96,0.00,,,0.00,0.000000,,2013-04-15 08:33:00,
2013-04-15 01:42:00,56.0,55.0,29.84,NW,313,2.0,2.0,96,0.00,,,0.00,0.000000,,2013-04-15 08:42:00,
2013-04-15 01:52:00,56.0,55.0,29.84,NW,313,2.0,2.0,96,0.00,,,0.00,0.000000,,2013-04-15 08:52:00,
2013-04-15 02:22:00,55.0,54.0,29.83,West,262,3.0,5.0,96,0.00,,,0.00,0.000000,,2013-04-15 09:22:00,
2013-04-15 02:32:00,55.0,54.0,29.83,West,262,3.0,5.0,96,0.00,,,0.00,0.000000,,2013-04-15 09:32:00,
2013-04-15 02:42:00,55.0,54.0,29.83,West,262,3.0,5.0,96,0.00,,,0.00,0.000000,,2013-04-15 09:42:00,
2013-04-15 02:52:00,55.0,54.0,29.83,West,262,3.0,5.0,96,0.00,,,0.00,0.000000,,2013-04-15 09:52:00,
2013-04-15 03:23:00,56.0,54.0,29.82,West,273,3.0,5.0,93,0.00,,,0.00,0.000000,,2013-04-15 10:23:00,
2013-04-15 03:33:00,56.0,54.0,29.82,West,273,3.0,5.0,93,0.00,,,0.00,0.000000,,2013-04-15 10:33:00,
2013-04-15 03:42:00,56.0,54.0,29.82,West,273,3.0,5.0,93,0.00,,,0.00,0.000000,,2013-04-15 10:42:00,
2013-04-15 03:52:00,56.0,54.0,29.82,West,273,3.0,5.0,93,0.00,,,0.00,0.000000,,2013-04-15 10:52:00,
2013-04-15 04:22:00,56.0,54.0,29.82,WSW,243,3.0,5.0,93,0.00,,,0.00,0.000000,,2013-04-15 11:22:00,
2013-04-15 04:32:00,56.0,54.0,29.82,WSW,243,3.0,5.0,93,0.00,,,0.00,0.000000,,2013-04-15 11:32:00,
2013-04-15 04:42:00,56.0,54.0,29.82,WSW,243,3.0,5.0,93,0.00,,,0.00,0.000000,,2013-04-15 11:42:00,
2013-04-15 04:52:00,56.0,54.0,29.82,WSW,243,3.0,5.0,93,0.00,,,0.00,0.000000,,2013-04-15 11:52:00,
2013-04-15 05:23:00,56.0,54.0,29.81,NW,323,3.0,6.0,92,0.00,,,0.00,0.000000,,2013-04-15 12:23:00,
2013-04-15 05:33:00,56.0,54.0,29.81,NW,323,3.0,6.0,92,0.00,,,0.00,0.000000,,2013-04-15 12:33:00,
2013-04-15 05:43:00,56.0,54.0,29.81,NW,323,3.0,6.0,92,0.00,,,0.00,0.000000,,2013-04-15 12:43:00,
2013-04-15 05:52:00,56.0,54.0,29.81,NW,323,3.0,6.0,92,0.00,,,0.00,0.000000,,2013-04-15 12:52:00,
2013-04-15 06:23:00,56.0,55.0,29.81,WSW,253,2.0,5.0,96,0.00,,,0.00,0.000000,,2013-04-15 13:23:00,
2013-04-15 06:33:00,56.0,55.0,29.81,WSW,253,2.0,5.0,96,0.00,,,0.00,0.000000,,2013-04-15 13:33:00,
2013-04-15 06:42:00,56.0,55.0,29.81,WSW,253,2.0,5.0,96,0.00,,,0.00,0.000000,,2013-04-15 13:42:00,
2013-04-15 06:52:00,56.0,55.0,29.81,WSW,253,2.0,5.0,96,0.00,,,0.00,0.000000,,2013-04-15 13:52:00,
2013-04-15 07:22:00,54.0,54.0,29.83,West,268,7.0,8.0,100,0.00,,,0.00,1.000000,,2013-04-15 14:22:00,
2013-04-15 07:33:00,54.0,54.0,29.83,West,268,7.0,8.0,100,0.00,,,0.00,1.000000,,2013-04-15 14:33:00,
2013-04-15 07:43:00,54.0,54.0,29.83,West,268,7.0,8.0,100,0.00,,,0.00,1.000000,,2013-04-15 14:43:00,
2013-04-15 07:53:00,54.0,54.0,29.83,West,268,7.0,8.0,100,0.00,,,0.00,1.000000,,2013-04-15 14:53:00,
2013-04-15 08:23:00,56.0,55.0,29.84,West,270,6.0,10.0,95,0.00,,,0.00,41.000000,,2013-04-15 15:23:00,
2013-04-15 08:34:00,56.0,55.0,29.84,West,270,6.0,10.0,95,0.00,,,0.00,41.000000,,2013-04-15 15:34:00,
2013-04-15 08:43:00,56.0,55.0,29.84,West,270,6.0,10.0,95,0.00,,,0.00,41.000000,,2013-04-15 15:43:00,
2013-04-15 08:53:00,56.0,55.0,29.84,West,270,6.0,10.0,95,0.00,,,0.00,41.000000,,2013-04-15 15:53:00,
2013-04-15 09:24:00,58.0,52.0,29.85,WSW,249,6.0,9.0,80,0.00,,,0.00,203.000000,,2013-04-15 16:24:00,
2013-04-15 09:33:00,58.0,52.0,29.85,WSW,249,6.0,9.0,80,0.00,,,0.00,203.000000,,2013-04-15 16:33:00,
2013-04-15 09:43:00,58.0,52.0,29.85,WSW,249,6.0,9.0,80,0.00,,,0.00,203.000000,,2013-04-15 16:43:00,
2013-04-15 09:52:00,58.0,52.0,29.85,WSW,249,6.0,9.0,80,0.00,,,0.00,203.000000,,2013-04-15 16:52:00,
2013-04-15 10:21:00,59.0,52.0,29.86,WSW,250,6.0,9.0,77,0.00,,,0.00,334.000000,,2013-04-15 17:21:00,
2013-04-15 10:33:00,59.0,52.0,29.86,WSW,250,6.0,9.0,77,0.00,,,0.00,334.000000,,2013-04-15 17:33:00,
2013-04-15 10:43:00,59.0,52.0,29.86,WSW,250,6.0,9.0,77,0.00,,,0.00,334.000000,,2013-04-15 17:43:00,
2013-04-15 10:52:00,59.0,52.0,29.86,WSW,250,6.0,9.0,77,0.00,,,0.00,334.000000,,2013-04-15 17:52:00,
2013-04-15 11:23:00,61.0,52.0,29.87,WSW,249,10.0,14.0,71,0.00,,,0.00,623.000000,,2013-04-15 18:23:00,
2013-04-15 11:32:00,61.0,52.0,29.87,WSW,249,10.0,14.0,71,0.00,,,0.00,623.000000,,2013-04-15 18:32:00,
2013-04-15 11:42:00,61.0,52.0,29.87,WSW,249,10.0,14.0,71,0.00,,,0.00,623.000000,,2013-04-15 18:42:00,
2013-04-15 11:52:00,61.0,52.0,29.87,WSW,249,10.0,14.0,71,0.00,,,0.00,623.000000,,2013-04-15 18:52:00,
2013-04-15 12:22:00,60.0,50.0,29.88,WSW,251,7.0,16.0,70,0.00,,,0.00,652.000000,,2013-04-15 19:22:00,
2013-04-15 12:34:00,60.0,50.0,29.88,WSW,251,7.0,16.0,70,0.00,,,0.00,652.000000,,2013-04-15 19:34:00,
2013-04-15 12:47:00,60.0,50.0,29.88,WSW,251,7.0,16.0,70,0.00,,,0.00,652.000000,,2013-04-15 19:47:00,
2013-04-15 13:22:00,59.0,50.0,29.88,West,263,10.0,13.0,73,0.00,,,0.00,373.000000,,2013-04-15 20:22:00,
2013-04-15 13:32:00,59.0,50.0,29.88,West,263,10.0,13.0,73,0.00,,,0.00,373.000000,,2013-04-15 20:32:00,
2013-04-15 13:42:00,59.0,50.0,29.88,West,263,10.0,13.0,73,0.00,,,0.00,373.000000,,2013-04-15 20:42:00,
2013-04-15 13:52:00,59.0,50.0,29.88,West,263,10.0,13.0,73,0.00,,,0.00,373.000000,,2013-04-15 20:52:00,
2013-04-15 14:22:00,60.0,51.0,29.87,WSW,256,10.0,17.0,72,0.00,,,0.00,408.000000,,2013-04-15 21:22:00,
2013-04-15 14:32:00,60.0,51.0,29.87,WSW,256,10.0,17.0,72,0.00,,,0.00,408.000000,,2013-04-15 21:32:00,
2013-04-15 14:42:00,60.0,51.0,29.87,WSW,256,10.0,17.0,72,0.00,,,0.00,408.000000,,2013-04-15 21:42:00,
2013-04-15 14:53:00,60.0,51.0,29.87,WSW,256,10.0,17.0,72,0.00,,,0.00,408.000000,,2013-04-15 21:53:00,
2013-04-15 15:23:00,63.0,53.0,29.84,WSW,251,13.0,20.0,69,0.00,,,0.00,736.000000,,2013-04-15 22:23:00,
2013-04-15 15:32:00,63.0,53.0,29.84,WSW,251,13.0,20.0,69,0.00,,,0.00,736.000000,,2013-04-15 22:32:00,
2013-04-15 15:42:00,63.0,53.0,29.84,WSW,251,13.0,20.0,69,0.00,,,0.00,736.000000,,2013-04-15 22:42:00,
2013-04-15 15:52:00,63.0,53.0,29.84,WSW,251,13.0,20.0,69,0.00,,,0.00,736.000000,,2013-04-15 22:52:00,
2013-04-15 16:22:00,62.0,51.0,29.83,WSW,257,11.0,23.0,67,0.00,,,0.00,819.000000,,2013-04-15 23:22:00,
2013-04-15 16:32:00,62.0,51.0,29.83,WSW,257,11.0,23.0,67,0.00,,,0.00,819.000000,,2013-04-15 23:32:00,
2013-04-15 16:42:00,62.0,51.0,29.83,WSW,257,11.0,23.0,67,0.00,,,0.00,819.000000,,2013-04-15 23:42:00,
2013-04-15 16:52:00,62.0,51.0,29.83,WSW,257,11.0,23.0,67,0.00,,,0.00,819.000000,,2013-04-15 23:52:00,
2013-04-15 17:22:00,62.0,51.0,29.82,West,259,12.0,22.0,66,0.00,,,0.00,628.000000,,2013-04-16 00:22:00,
2013-04-15 17:32:00,62.0,51.0,29.82,West,259,12.0,22.0,66,0.00,,,0.00,628.000000,,2013-04-16 00:32:00,
2013-04-15 17:42:00,62.0,51.0,29.82,West,259,12.0,22.0,66,0.00,,,0.00,628.000000,,2013-04-16 00:42:00,
2013-04-15 17:51:00,62.0,51.0,29.82,West,259,12.0,22.0,66,0.00,,,0.00,628.000000,,2013-04-16 00:51:00,
2013-04-15 18:22:00,60.0,50.0,29.81,West,265,13.0,26.0,69,0.00,,,0.00,406.000000,,2013-04-16 01:22:00,
2013-04-15 18:32:00,60.0,50.0,29.81,West,265,13.0,26.0,69,0.00,,,0.00,406.000000,,2013-04-16 01:32:00,
2013-04-15 18:42:00,60.0,50.0,29.81,West,265,13.0,26.0,69,0.00,,,0.00,406.000000,,2013-04-16 01:42:00,
2013-04-15 18:52:00,60.0,50.0,29.81,West,265,13.0,26.0,69,0.00,,,0.00,406.000000,,2013-04-16 01:52:00,
2013-04-15 19:22:00,56.0,48.0,29.82,West,270,13.0,25.0,75,0.00,,,0.00,153.000000,,2013-04-16 02:22:00,
2013-04-15 19:32:00,56.0,48.0,29.82,West,270,13.0,25.0,75,0.00,,,0.00,153.000000,,2013-04-16 02:32:00,
2013-04-15 19:42:00,56.0,48.0,29.82,West,270,13.0,25.0,75,0.00,,,0.00,153.000000,,2013-04-16 02:42:00,
2013-04-15 19:51:00,56.0,48.0,29.82,West,270,13.0,25.0,75,0.00,,,0.00,153.000000,,2013-04-16 02:51:00,
2013-04-15 20:22:00,52.0,44.0,29.83,WNW,287,7.0,26.0,74,0.00,,,-99.99,11.000000,,2013-04-16 03:22:00,
2013-04-15 20:33:00,52.0,44.0,29.83,WNW,287,7.0,26.0,74,0.00,,,-99.99,11.000000,,2013-04-16 03:33:00,
2013-04-15 20:43:00,52.0,44.0,29.83,WNW,287,7.0,26.0,74,0.00,,,-99.99,11.000000,,2013-04-16 03:43:00,
2013-04-15 20:52:00,52.0,44.0,29.83,WNW,287,7.0,26.0,74,0.00,,,-99.99,11.000000,,2013-04-16 03:52:00,
2013-04-15 21:23:00,53.0,43.0,29.84,WNW,291,8.0,17.0,69,0.00,,,0.00,0.000000,,2013-04-16 04:23:00,
2013-04-15 21:32:00,53.0,43.0,29.84,WNW,291,8.0,17.0,69,0.00,,,0.00,0.000000,,2013-04-16 04:32:00,
2013-04-15 21:42:00,53.0,43.0,29.84,WNW,291,8.0,17.0,69,0.00,,,0.00,0.000000,,2013-04-16 04:42:00,
2013-04-15 21:52:00,53.0,43.0,29.84,WNW,291,8.0,17.0,69,0.00,,,0.00,0.000000,,2013-04-16 04:52:00,
2013-04-15 22:22:00,50.0,41.0,29.86,WNW,296,5.0,15.0,72,0.00,,,0.00,0.000000,,2013-04-16 05:22:00,
2013-04-15 22:32:00,50.0,41.0,29.86,WNW,296,5.0,15.0,72,0.00,,,0.00,0.000000,,2013-04-16 05:32:00,
2013-04-15 22:42:00,50.0,41.0,29.86,WNW,296,5.0,15.0,72,0.00,,,0.00,0.000000,,2013-04-16 05:42:00,
2013-04-15 22:51:00,50.0,41.0,29.86,WNW,296,5.0,15.0,72,0.00,,,0.00,0.000000,,2013-04-16 05:51:00,
2013-04-15 23:22:00,51.0,43.0,29.86,West,272,8.0,10.0,75,0.00,,,0.00,0.000000,,2013-04-16 06:22:00,
2013-04-15 23:32:00,51.0,43.0,29.86,West,272,8.0,10.0,75,0.00,,,0.00,0.000000,,2013-04-16 06:32:00,
2013-04-15 23:42:00,51.0,43.0,29.86,West,272,8.0,10.0,75,0.00,,,0.00,0.000000,,2013-04-16 06:42:00,
2013-04-15 23:52:00,51.0,43.0,29.86,West,272,8.0,10.0,75,0.00,,,0.00,0.000000,,2013-04-16 06:52:00,